Regional Weather Roundup
Issued by NWS

Home | Current Version | Previous Version | Text Only | Print | Product List | Glossary On
Versions: 1 2 3 4 5 6 7 8 9 10 11 12 13 14 15 16 17 18 19 20 21 22 23 24 25 26 27 28 29 30 31 32 33 34 35 36 37 38 39 40 41 42 43 44 45 46 47 48 49 50
000
ASUS44 KFWD 281915
RWRTX
NORTH TEXAS HOURLY WEATHER ROUNDUP
NATIONAL WEATHER SERVICE FORT WORTH TX
200 PM CDT WED JUN 28 2017

NOTE: "FAIR" INDICATES FEW OR NO CLOUDS BELOW 12,000 FEET WITH NO
SIGNIFICANT WEATHER AND/OR OBSTRUCTIONS TO VISIBILITY.

TXZ118-119-282000-
DALLAS/FORT WORTH METROPLEX

CITY           SKY/WX    TMP DP  RH WIND       PRES   REMARKS
DFW AIRPORT    MOSUNNY   88  70  55 S13       29.92F HX  93
DALLAS LOVE    PTSUNNY   88  70  55 SE12      29.93F HX  93
FTW MEACHAM    PTSUNNY   89  72  56 S12       29.92F HX  96
DAL-EXECUTIVE  MOSUNNY   87  71  58 S13G18    29.93F HX  93
FTW-ALLIANCE   MOSUNNY   87  71  58 SE13      29.92F HX  93
FTW-NAS-JRB    MOSUNNY   87  71  58 S12       29.93F HX  93
FTW-SPINKS     PTSUNNY   86  70  58 SE12      29.95F HX  90
ARLINGTON      MOSUNNY   87  70  56 SE16G22   29.93F HX  92
GRAND PRAIRIE  MOSUNNY   86  66  51 SE9G21    29.94F
ADDISON        PTSUNNY   86  70  58 MISG      29.94F HX  90
MESQUITE       PTSUNNY   84  68  58 SE9       29.94F
LANCASTER      PTSUNNY   86  69  57 SE10      29.95F
$$

TXZ091>094-102>105-117-120-121-131>134-282000-
NORTH CENTRAL TEXAS

CITY           SKY/WX    TMP DP  RH WIND       PRES   REMARKS
SHRMAN/DENISON MOSUNNY   87  68  53 SE16      29.95S HX  90
GAINESVILLE    MOSUNNY   86  69  57 S13G21    29.94F HX  90
BOWIE          SUNNY     87  69  56 S16       29.91F HX  91
BRIDGEPORT     MOSUNNY   86  68  53 S13       29.93F
DECATUR        MOSUNNY   86  67  52 S15G23    29.93F
DENTON         MOSUNNY   87  71  58 SE14G23   29.92F HX  93
MCKINNEY       MOSUNNY   86  72  62 S13       29.94F HX  92
BONHAM         MOSUNNY   86  68  54 SE15      29.95F
GREENVILLE     PTSUNNY   91  68  46 SE12      29.95F HX  95
ROCKWALL       MOSUNNY   86  70  59 S10G18    29.94F HX  91
TERRELL        PTSUNNY   86  69  56 S10       29.95F HX  90
WAXAHACHIE     PTSUNNY   86  70  59 SE7       29.95F HX  91
CLEBURNE       PTSUNNY   86  72  62 S13G20    29.95F HX  92
GRANBURY       MOSUNNY   87  68  52 SE12G20   29.93F HX  91
$$

TXZ083>090-098>101-113>116-127>130-139>142-154-155-282000-
WESTERN NORTH TEXAS

CITY           SKY/WX    TMP DP  RH WIND       PRES   REMARKS
WICHITA FALLS  MOSUNNY   89  68  49 SE24G30   29.86F HX  93
WF-KICKAPOO    SUNNY     89  68  49 SE18G29   29.89F HX  93
VERNON         SUNNY     92  58  31 S23       29.84F HX  91
ABILENE        SUNNY     88  64  44 S16G24    29.90F
ABILENE-DYESS  MOSUNNY   90  66  46 S17G24    29.88F HX  92
GRAHAM         SUNNY     88  67  50 SE13G20   29.89S HX  91
BRECKENRIDGE   SUNNY     89  66  47 S15G22    29.90F HX  91
CISCO          SUNNY     86  68  54 SE18      29.94S
EASTLAND       PTSUNNY   85  70  61 SE18      29.93S
RANGER         MOSUNNY   83  69  61 SE16G22   29.94F
MINERAL WELLS  PTSUNNY   87  68  52 S16       29.91F HX  90
STEPHENVILLE   MOSUNNY   84  67  56 SE12      29.97F
COMANCHE       PTSUNNY   83  69  62 S12G20    29.95F
BROWNWOOD      MOSUNNY   84  68  58 SE12G18   29.94F
COLEMAN        MOSUNNY   91  63  39 S16       29.93F HX  91
$$

TXZ143>147-156>162-174-175-282000-
CENTRAL TEXAS

CITY           SKY/WX    TMP DP  RH WIND       PRES   REMARKS
WACO           MOSUNNY   88  70  55 SE12      29.93F HX  93
WACO-MCGREGOR  MOSUNNY   89  70  53 E10G18    29.93F HX  94
HILLSBORO      PTSUNNY   87  71  57 SE9G17    29.94F HX  92
CORSICANA      MOSUNNY   88  71  57 E10       29.95F HX  94
MEXIA          PTSUNNY   87  69  53 SE8G20    29.93F HX  91
HEARNE         PTSUNNY   86  72  63 E5        29.94F HX  91
CAMERON        PTSUNNY   87  70  57 E8        29.93F HX  92
TEMPLE         MOSUNNY   88  70  55 SE8G17    29.93F HX  93
KILLEEN        PTSUNNY   85  68  57 SE9       29.93F
FORT HOOD      PTSUNNY   86  69  56 SE9       29.91F
HAMILTON       PTSUNNY   86  70  58 S9        29.96F HX  91
LAMPASAS       PTSUNNY   84  72  65 SE7       29.94F HX  90
$$

TXZ095>097-106>112-122>126-135>138-148>153-164>167-282000-
EAST TEXAS

CITY           SKY/WX    TMP DP  RH WIND       PRES   REMARKS
PARIS            N/A     88  72  58 SE12      29.96F HX  94
SULPHUR SPRNGS PTSUNNY   87  69  56 SE10      29.97F HX  91
MOUNT PLEASANT SUNNY     86  68  54 SE10      29.97F HX  90
GILMER         PTSUNNY   87  68  53 SE8G17    29.96F HX  90
MINEOLA        MOSUNNY   86  72  62 SE10G16   29.95F HX  92
TYLER          MOSUNNY   87  69  54 SE9       29.95F HX  91
LONGVIEW       MOSUNNY   87  70  56 SE8       29.95F HX  92
MARSHALL       MOSUNNY   86  67  52 S7        29.98F
ATHENS         PTSUNNY   86  68  54 SE10      29.93F
PALESTINE      MOSUNNY   87  71  57 E7        29.95F HX  93
JACKSONVILLE   MOSUNNY   87  69  55 SE8       29.98F HX  91
HENDERSON      PTSUNNY   87  69  54 SE9G16    29.97F HX  90
CENTER         PTCLDY    89  69  52 E6        29.97F HX  94
NACOGDOCHES    PTSUNNY   86  72  62 E9        29.93F HX  92
LUFKIN         PTSUNNY   85  70  60 E10       29.94F
$$

SUPPLEMENTAL OBSERVATIONS (NWS FORT WORTH AREA)

CITY           SKY/WX    TMP DP  RH WIND       PRES   REMARKS
DENISON DAM      N/A     84  66  54 S9          N/A
CADDO GRASSLND   N/A     88  70  55 S9          N/A  HX  92
PAT MAYSE LAKE   N/A     84  70  61 SE13        N/A
GREENVILLE       N/A     88  70  55 SE9         N/A  HX  92
CEDAR HILL       N/A     88  70  55 SE7G16      N/A  HX  92
LBJ GRASSLAND    N/A     88  70  55 SE13        N/A  HX  92
POSSUM KINGDOM   N/A     88  68  51 S14G24      N/A  HX  91
GRANBURY         N/A     86  66  51 SE15        N/A
COMANCHE         N/A     84  68  58 SE14        N/A
MCGREGOR         N/A     88  68  51 SE9         N/A  HX  91
TEMPLE           N/A     88  70  55 E8          N/A  HX  92
LAKE LIMESTONE   N/A     88  70  55 SE7         N/A  HX  92
ATHENS           N/A     86  70  58 SE9         N/A  HX  90
$$

SUPPLEMENTAL OBSERVATIONS (NWS NORMAN AREA)

CITY           SKY/WX    TMP DP  RH WIND       PRES   REMARKS
GOODLETT         N/A     95  56  27 SE18G25   29.81F HX  93
ODELL            N/A     92  65  41 SE18      29.85F HX  94
CROWELL          N/A     94  65  38 S20       29.83F HX  96
KNOX CITY        N/A     95  57  28 S20G26    29.85F HX  93
SEYMOUR          N/A     91  65  42 SE20G28   29.86S HX  92
MILLERS CREEK    N/A     90  66  45 S17G23      N/A  HX  92
$$

SUPPLEMENTAL OBSERVATIONS (NWS SAN ANGELO AREA)

CITY           SKY/WX    TMP DP  RH WIND       PRES   REMARKS
WEINERT          N/A     94  65  37 SE18      29.86F HX  96
HASKELL          N/A     91  57  31 S16G23    29.86F
THROCKMORTON     N/A     87  70  56 SE16G22   29.89F HX  92
STAMFORD         N/A     93  65  39 S22       29.87F HX  95
CLYDE            N/A     87  66  50 SE14      29.93F
HAMBY            N/A     91  66  43 SE15G22     N/A  HX  94
IVIE RESERVOIR   N/A     90  64  43 SE13G21     N/A  HX  91
COLORADO BEND    N/A     84  66  54 S7          N/A
$$

SUPPLEMENTAL OBSERVATIONS (NWS SHREVEPORT AREA)

CITY           SKY/WX    TMP DP  RH WIND       PRES   REMARKS
CLARKSVILLE      N/A     88  68  51 SE10        N/A  HX  91
TEXARKANA        N/A     88  66  48 S5          N/A  HX  90
LINDEN           N/A     88  68  51 E6          N/A  HX  91
GILMER           N/A     88  68  51 S7G15       N/A  HX  91
HENDERSON        N/A     88  68  51 SE10        N/A  HX  91
N SABINE NF      N/A     91  73  55 MISG        N/A  HX 100
S SABINE NF      N/A     88  70  55 E6          N/A  HX  92
$$

SUPPLEMENTAL OBSERVATIONS ARE A COLLECTION OF AUTOMATED INSTRUMENTS
THAT ARE MAINTAINED BY A VARIETY OF FEDERAL AND STATE AGENCIES.
CERTAIN ELEMENTS...SUCH AS HUMIDITY VALUES AND SUSTAINED WIND
SPEEDS...MAY BE APPROXIMATED.





USA.gov is the U.S. government's official web portal to all federal, state and local government web resources and services.